Location: *
(51.5000°N, 0.1100°W)
Time: 01:52:47
(UTC+00:00)

MSX - Pass Details

Date: 10 August 2024
Orbit: 895 x 904 km, 99.0° (Epoch: 09 September)

Event Time Altitude Azimuth Distance (km) Brightness Sun altitude
Rises 00:20:12 0° 27° (NNE) 3,544 8.1 -23.0°
Reaches altitude 10° 00:23:40 10° 49° (NE) 2,597 6.8 -22.9°
Maximum altitude 00:27:09 16° 86° (E) 2,179 5.9 -22.9°
Enters shadow 00:30:02 12° 118° (ESE) 2,468 5.9 -22.8°
